Skip Page Navigation
NASA JPL Caltech
NASA Logo - Jet Propulsion Laboratory + View the NASA Portal
+ Center for Near-Earth Object Studies
JPL Home Earth Solar System Stars & Galaxies Technology
JPL Solar System Dynamics
BODIES ORBITS EPHEMERIDES TOOLS PHYSICAL DATA DISCOVERY FAQ SITE MAP
IMPORTANT: The SSD Announcement email list is now available. Major changes are coming in the near future, including possible hostname and/or URL changes. To be notified of such changes, subscribe to this email list.

Please visit this page for more details.


JPL Small-Body Database Browser
Search: [ help ]  
160109 (2000 SH148)
Classification: Main-belt Asteroid          SPK-ID: 2160109
Ephemeris | Orbit Diagram | Orbital Elements | Mission Design | Physical Parameters | Discovery Circumstances | Close-Approach Data ]

[ show orbit diagram ]
Orbital Elements at Epoch 2458600.5 (2019-Apr-27.0) TDB
Reference: JPL 11 (heliocentric ecliptic J2000)
 Element Value Uncertainty (1-sigma)   Units 
e .2065631071719225 4.5529e-08  
a 2.364173621477519 9.592e-09 au
q 1.875822572331226 1.0767e-07 au
i 1.48453585693333 4.305e-06 deg
node 279.7438275210993 0.00019501 deg
peri 52.09395041717418 0.00019526 deg
M 70.9586991107722 9.4349e-06 deg
tp 2458338.789816437657
(2018-Aug-08.28981644)
3.4744e-05 TDB
period 1327.75357021928
3.64
8.0805e-06
2.212e-08
d
yr
n .2711346503406844 1.6501e-09 deg/d
Q 2.852524670623812 1.1573e-08 au
  Orbit Determination Parameters
   # obs. used (total)      502  
   data-arc span      10205 days (27.94 yr)  
   first obs. used      1991-02-14  
   last obs. used      2019-01-23  
   planetary ephem.      DE431  
   SB-pert. ephem.      SB431-N16  
   condition code      0  
   norm. resid. RMS      .55764  
   source      ORB  
   producer      Otto Matic  
   solution date      2019-Jul-13 08:20:14  

Additional Information
 Earth MOID = .864786 au 
 Jupiter MOID = 2.50824 au 
 T_jup = 3.520 
[ show covariance matrix ]

Ephemeris | Orbit Diagram | Orbital Elements | Mission Design | Physical Parameters | Discovery Circumstances | Close-Approach Data ]

Physical Parameter Table
Parameter Symbol Value Units Sigma Reference Notes
absolute magnitude H 16.4   n/a MPO299855  

160109 (2000 SH148)          Discovered 2000-Sep-24 by LINEAR at Socorro
Reference: 20070730/Numbers.arcLast Updated: 2007-08-06

[ show close-approach data ]
Ephemeris | Orbit Diagram | Orbital Elements | Mission Design | Physical Parameters | Discovery Circumstances | Close-Approach Data ]
ABOUT SSD CREDITS/AWARDS PRIVACY/COPYRIGHT GLOSSARY LINKS
FirstGov
(server date/time)  
NASA Home Page
Site Manager:   Ryan S. Park
Webmaster  Alan B. Chamberlin